User: anonymous   Login
Location: Austin
(30.3000°N, 97.7500°W)
Time: 23:48:03
(UTC-05:00)
Language:

ADEOS II - Orbit

View from above orbital plane
View from above orbital plane
View from above satellite
View from above satellite

Ground track
Ground track

The orbit is defined by the following mean orbital elements,

1 27597U          26135.30708796 +.00000000 +00000-0 +71745-4 0 00008
2 27597  98.7861  94.2920 0001720 121.2643 238.8707 14.29329854    08
Epoch (UTC): 15 May 2026 07:22:12
Eccentricity: 0.0001720
inclination: 98.7861°
perigee height: 793 km
apogee height: 795 km
right ascension of ascending node: 94.2920°
argument of perigee: 121.2643°
revolutions per day: 14.29329854
mean anomaly at epoch: 238.8707°

The dashed part of the orbit path shows where the satellite is in the earth's shadow,  

DLR